• En España
  • Lista de países
  • Para 7 días
  • Temperatura del agua
  • Mapa Satelital
  • El tiempo en el mapa
  • Informadores
  • user-avatar
    Iniciar sesión

    Tiempo cada hora Haradok

    Hoy, 22 Octubre, Lunes

    Tiempo Temperatura Precipitaciones Viento Presión Humedad
    00:00 +3°C° 0 mm 2 mps 756 mmHg 85%
    01:00 +3°C° 0 mm 2 mps 755 mmHg 86%
    02:00 +3°C° 0 mm 2 mps 755 mmHg 88%
    03:00 +3°C° 0 mm 2 mps 755 mmHg 89%
    04:00 +3°C° 0 mm 2 mps 754 mmHg 90%
    05:00 +2°C° 0 mm 2 mps 754 mmHg 91%
    06:00 +2°C° 0 mm 3 mps 754 mmHg 90%
    07:00 +2°C° 0 mm 3 mps 754 mmHg 88%
    08:00 +3°C° 0 mm 3 mps 753 mmHg 87%
    09:00 +4°C° 0 mm 4 mps 753 mmHg 81%
    10:00 +6°C° 0 mm 4 mps 753 mmHg 75%
    11:00 +7°C° 0 mm 5 mps 752 mmHg 68%
    12:00 +8°C° 0 mm 5 mps 751 mmHg 67%
    13:00 +9°C° 0 mm 5 mps 751 mmHg 65%
    14:00 +9°C° 0 mm 5 mps 750 mmHg 63%
    15:00 +8°C° 0 mm 5 mps 749 mmHg 67%
    16:00 +7°C° 0 mm 4 mps 749 mmHg 71%
    17:00 +6°C° 0 mm 4 mps 748 mmHg 75%
    18:00 +6°C° 0.1 mm 4 mps 748 mmHg 77%
    19:00 +6°C° 0.1 mm 4 mps 747 mmHg 78%
    20:00 +6°C° 0.1 mm 5 mps 747 mmHg 80%
    21:00 +6°C° 0.6 mm 5 mps 746 mmHg 82%
    22:00 +6°C° 0.6 mm 4 mps 746 mmHg 85%
    23:00 +6°C° 0.6 mm 4 mps 745 mmHg 88%

    Mañana, 23 Octubre, Martes

    Tiempo Temperatura Precipitaciones Viento Presión Humedad
    00:00 +6°C° 0.2 mm 4 mps 745 mmHg 89%
    01:00 +5°C° 0.2 mm 4 mps 745 mmHg 90%
    02:00 +5°C° 0.2 mm 3 mps 745 mmHg 91%
    03:00 +4°C° 0 mm 3 mps 745 mmHg 92%
    04:00 +3°C° 0 mm 3 mps 744 mmHg 93%
    05:00 +2°C° 0 mm 3 mps 744 mmHg 94%
    06:00 +2°C° 0 mm 3 mps 744 mmHg 92%
    07:00 +3°C° 0 mm 2 mps 744 mmHg 91%
    08:00 +3°C° 0 mm 2 mps 744 mmHg 90%
    09:00 +5°C° 0 mm 2 mps 743 mmHg 83%
    10:00 +5°C° 0 mm 3 mps 743 mmHg 77%
    11:00 +7°C° 0 mm 3 mps 742 mmHg 70%
    12:00 +7°C° 0 mm 3 mps 741 mmHg 68%
    13:00 +7°C° 0 mm 3 mps 740 mmHg 65%
    14:00 +7°C° 0 mm 4 mps 739 mmHg 63%
    15:00 +6°C° 0 mm 4 mps 738 mmHg 67%
    16:00 +5°C° 0 mm 4 mps 737 mmHg 71%
    17:00 +4°C° 0 mm 4 mps 736 mmHg 75%
    18:00 +4°C° 0 mm 4 mps 735 mmHg 77%
    19:00 +4°C° 0 mm 4 mps 734 mmHg 79%
    20:00 +2°C° 0 mm 5 mps 733 mmHg 81%
    21:00 +2°C° 0 mm 5 mps 731 mmHg 82%
    22:00 +2°C° 0 mm 5 mps 730 mmHg 83%
    23:00 +2°C° 0 mm 6 mps 728 mmHg 84%

    Pasado mañana, 24 Octubre, Miércoles

    Tiempo Temperatura Precipitaciones Viento Presión Humedad
    00:00 +2°C° 0.5 mm 6 mps 727 mmHg 84%
    01:00 +2°C° 0.5 mm 6 mps 726 mmHg 83%
    02:00 +3°C° 0.5 mm 6 mps 724 mmHg 83%
    03:00 +3°C° 0.7 mm 6 mps 724 mmHg 85%
    04:00 +3°C° 0.7 mm 5 mps 723 mmHg 87%
    05:00 +3°C° 0.7 mm 5 mps 722 mmHg 88%
    06:00 +4°C° 0.7 mm 4 mps 722 mmHg 89%
    07:00 +4°C° 0.7 mm 3 mps 722 mmHg 91%
    08:00 +4°C° 0.7 mm 3 mps 721 mmHg 92%
    09:00 +4°C° 0.4 mm 3 mps 722 mmHg 90%
    10:00 +5°C° 0.4 mm 3 mps 722 mmHg 89%
    11:00 +5°C° 0.4 mm 3 mps 722 mmHg 87%
    12:00 +5°C° 0.2 mm 3 mps 723 mmHg 86%
    13:00 +5°C° 0.2 mm 3 mps 723 mmHg 86%
    14:00 +6°C° 0.2 mm 2 mps 724 mmHg 86%
    15:00 +5°C° 0.2 mm 3 mps 724 mmHg 87%
    16:00 +5°C° 0.2 mm 3 mps 725 mmHg 88%
    17:00 +4°C° 0.2 mm 3 mps 726 mmHg 89%
    18:00 +4°C° 0.2 mm 3 mps 726 mmHg 89%
    19:00 +4°C° 0.2 mm 4 mps 727 mmHg 88%
    20:00 +4°C° 0.2 mm 4 mps 728 mmHg 87%
    21:00 +4°C° 0.2 mm 4 mps 728 mmHg 87%
    22:00 +2°C° 0.2 mm 5 mps 729 mmHg 87%
    23:00 +2°C° 0.2 mm 5 mps 730 mmHg 86%

    25 Octubre, Jueves

    Tiempo Temperatura Precipitaciones Viento Presión Humedad
    00:00 +2°C° 0 mm 5 mps 730 mmHg 86%
    01:00 +1°C° 0 mm 5 mps 731 mmHg 86%
    02:00 +1°C° 0 mm 6 mps 732 mmHg 86%
    03:00 +1°C° 0 mm 6 mps 732 mmHg 87%
    04:00 -1°C° 0 mm 6 mps 732 mmHg 87%
    05:00 0°C° 0 mm 5 mps 733 mmHg 87%
    06:00 0°C° 0 mm 5 mps 733 mmHg 87%
    07:00 0°C° 0 mm 5 mps 733 mmHg 88%
    08:00 0°C° 0 mm 5 mps 734 mmHg 88%
    09:00 +1°C° 0 mm 5 mps 734 mmHg 84%
    10:00 +1°C° 0 mm 5 mps 734 mmHg 80%
    11:00 +2°C° 0 mm 5 mps 734 mmHg 75%
    12:00 +3°C° 0 mm 5 mps 734 mmHg 75%
    13:00 +3°C° 0 mm 5 mps 734 mmHg 74%
    14:00 +3°C° 0 mm 5 mps 734 mmHg 74%
    15:00 +3°C° 0 mm 5 mps 734 mmHg 75%
    16:00 +4°C° 0 mm 4 mps 734 mmHg 77%
    17:00 +4°C° 0 mm 3 mps 734 mmHg 79%
    18:00 +3°C° 0 mm 3 mps 734 mmHg 82%
    19:00 +2°C° 0 mm 3 mps 734 mmHg 85%
    20:00 +2°C° 0 mm 3 mps 734 mmHg 88%
    21:00 +2°C° 0 mm 3 mps 734 mmHg 90%
    22:00 +1°C° 0 mm 3 mps 734 mmHg 91%
    23:00 +1°C° 0 mm 3 mps 734 mmHg 93%

    26 Octubre, Viernes

    Tiempo Temperatura Precipitaciones Viento Presión Humedad
    00:00 0°C° 0 mm 3 mps 734 mmHg 93%
    01:00 0°C° 0 mm 3 mps 734 mmHg 94%
    02:00 +1°C° 0 mm 2 mps 735 mmHg 94%
    03:00 +1°C° 0 mm 2 mps 735 mmHg 94%
    04:00 +1°C° 0 mm 2 mps 735 mmHg 94%
    05:00 +1°C° 0 mm 2 mps 735 mmHg 94%
    06:00 +1°C° 0 mm 2 mps 736 mmHg 94%
    07:00 +1°C° 0 mm 2 mps 736 mmHg 94%
    08:00 +1°C° 0 mm 2 mps 736 mmHg 94%
    09:00 +2°C° 0 mm 3 mps 737 mmHg 88%
    10:00 +3°C° 0 mm 3 mps 737 mmHg 83%
    11:00 +4°C° 0 mm 3 mps 737 mmHg 77%
    12:00 +5°C° 0 mm 3 mps 738 mmHg 77%
    13:00 +5°C° 0 mm 4 mps 738 mmHg 76%
    14:00 +5°C° 0 mm 4 mps 738 mmHg 75%
    15:00 +5°C° 0 mm 3 mps 738 mmHg 79%
    16:00 +4°C° 0 mm 3 mps 738 mmHg 82%
    17:00 +4°C° 0 mm 2 mps 738 mmHg 86%
    18:00 +3°C° 0 mm 3 mps 738 mmHg 86%
    19:00 +3°C° 0 mm 3 mps 738 mmHg 86%
    20:00 +3°C° 0 mm 3 mps 738 mmHg 87%
    21:00 +4°C° 0.6 mm 4 mps 737 mmHg 88%
    22:00 +5°C° 0.6 mm 4 mps 737 mmHg 89%
    23:00 +6°C° 0.6 mm 5 mps 737 mmHg 91%

    27 Octubre, Sábado

    Tiempo Temperatura Precipitaciones Viento Presión Humedad
    00:00 +6°C° 0.2 mm 5 mps 737 mmHg 88%
    01:00 +6°C° 0.2 mm 5 mps 737 mmHg 85%
    02:00 +6°C° 0.2 mm 5 mps 737 mmHg 83%
    03:00 +6°C° 0 mm 5 mps 737 mmHg 84%
    04:00 +6°C° 0 mm 5 mps 737 mmHg 85%
    05:00 +6°C° 0 mm 5 mps 737 mmHg 87%
    06:00 +6°C° 0 mm 5 mps 737 mmHg 87%
    07:00 +6°C° 0 mm 4 mps 738 mmHg 87%
    08:00 +6°C° 0 mm 4 mps 738 mmHg 87%
    09:00 +6°C° 0 mm 4 mps 739 mmHg 84%
    10:00 +7°C° 0 mm 5 mps 739 mmHg 80%
    11:00 +8°C° 0 mm 5 mps 739 mmHg 76%
    12:00 +8°C° 0 mm 5 mps 740 mmHg 74%
    13:00 +8°C° 0 mm 5 mps 740 mmHg 71%
    14:00 +10°C° 0 mm 4 mps 740 mmHg 68%
    15:00 +8°C° 0 mm 4 mps 740 mmHg 74%
    16:00 +8°C° 0 mm 3 mps 740 mmHg 79%
    17:00 +7°C° 0 mm 2 mps 740 mmHg 84%
    18:00 +7°C° 0 mm 2 mps 740 mmHg 86%
    19:00 +7°C° 0 mm 2 mps 740 mmHg 87%
    20:00 +8°C° 0 mm 1 mps 741 mmHg 89%
    21:00 +8°C° 0.3 mm 1 mps 740 mmHg 90%
    22:00 +7°C° 0.3 mm 2 mps 740 mmHg 92%
    23:00 +7°C° 0.3 mm 2 mps 739 mmHg 93%

    28 Octubre, Domingo

    Tiempo Temperatura Precipitaciones Viento Presión Humedad
    00:00 +7°C° 1.6 mm 2 mps 739 mmHg 94%
    01:00 +7°C° 1.6 mm 3 mps 738 mmHg 94%
    02:00 +7°C° 1.6 mm 3 mps 738 mmHg 95%
    03:00 +7°C° 1 mm 3 mps 738 mmHg 94%
    04:00 +7°C° 1 mm 3 mps 738 mmHg 94%
    05:00 +8°C° 1 mm 3 mps 737 mmHg 94%
    06:00 +8°C° 0.4 mm 3 mps 738 mmHg 93%
    07:00 +7°C° 0.4 mm 3 mps 738 mmHg 93%
    08:00 +7°C° 0.4 mm 3 mps 738 mmHg 92%
    09:00 +7°C° 0.2 mm 3 mps 739 mmHg 90%
    10:00 +7°C° 0.2 mm 3 mps 740 mmHg 88%
    11:00 +7°C° 0.2 mm 3 mps 740 mmHg 86%
    12:00 +6°C° 0.4 mm 4 mps 740 mmHg 86%
    13:00 +6°C° 0.4 mm 4 mps 741 mmHg 85%
    14:00 +6°C° 0.4 mm 4 mps 741 mmHg 85%
    15:00 +6°C° 1.3 mm 4 mps 741 mmHg 86%
    16:00 +5°C° 1.3 mm 4 mps 742 mmHg 87%
    17:00 +5°C° 1.3 mm 4 mps 742 mmHg 89%
    18:00 +5°C° 0.9 mm 4 mps 742 mmHg 88%
    19:00 +4°C° 0.9 mm 4 mps 743 mmHg 88%
    20:00 +4°C° 0.9 mm 4 mps 743 mmHg 88%
    21:00 +4°C° 0.4 mm 4 mps 743 mmHg 88%
    22:00 +4°C° 0.4 mm 4 mps 744 mmHg 88%
    23:00 +4°C° 0.4 mm 4 mps 744 mmHg 88%
    Mostrar más